| time (UTC) | temp F | wind direction | speed MPH | gust MPH | rain 1hr in | rain 24hr in | rain mn in | humidity % | barometer mb |
| 20260510220057 | 66 | 232 | 24.0 | 29.0 | 0.00 | 0.00 | 0.00 | 43 | 1012.8 |
| 20260510214556 | 66 | 234 | 22.0 | 30.0 | 0.00 | 0.00 | 0.00 | 45 | 1012.6 |
| 20260510213055 | 68 | 231 | 24.0 | 35.0 | 0.00 | 0.00 | 0.00 | 45 | 1012.6 |
| 20260510211555 | 67 | 238 | 22.0 | 29.0 | 0.00 | 0.00 | 0.00 | 47 | 1012.4 |
| 20260510210057 | 69 | 234 | 23.0 | 29.0 | 0.00 | 0.00 | 0.00 | 44 | 1012.3 |
| 20260510204555 | 70 | 217 | 22.0 | 27.0 | 0.00 | 0.00 | 0.00 | 45 | 1012.3 |
| 20260510203051 | 69 | 227 | 22.0 | 31.0 | 0.00 | 0.00 | 0.00 | 46 | 1012.5 |
| 20260510201554 | 69 | 258 | 23.0 | 29.0 | 0.00 | 0.00 | 0.00 | 47 | 1012.4 |
| 20260510200048 | 68 | 231 | 19.0 | 29.0 | 0.00 | 0.00 | 0.00 | 50 | 1012.4 |
| 20260510194550 | 68 | 239 | 19.0 | 27.0 | 0.00 | 0.00 | 0.00 | 50 | 1012.4 |
| 20260510193051 | 68 | 245 | 19.0 | 27.0 | 0.00 | 0.00 | 0.00 | 50 | 1012.3 |
| 20260510191548 | 67 | 243 | 19.0 | 25.0 | 0.00 | 0.00 | 0.00 | 53 | 1012.6 |
| 20260510190044 | 67 | 248 | 14.0 | 21.0 | 0.00 | 0.00 | 0.00 | 54 | 1012.6 |
| 20260510184543 | 66 | 232 | 16.0 | 23.0 | 0.00 | 0.00 | 0.00 | 56 | 1012.5 |
| 20260510183038 | 64 | 236 | 14.0 | 21.0 | 0.00 | 0.00 | 0.00 | 59 | 1012.6 |
| 20260510181538 | 63 | 244 | 15.0 | 21.0 | 0.00 | 0.00 | 0.00 | 61 | 1012.6 |
| 20260510180034 | 62 | 237 | 15.0 | 20.0 | 0.00 | 0.00 | 0.00 | 60 | 1012.7 |
| 20260510174534 | 62 | 245 | 13.0 | 20.0 | 0.00 | 0.00 | 0.00 | 60 | 1012.7 |
| 20260510173030 | 61 | 229 | 11.0 | 18.0 | 0.00 | 0.00 | 0.00 | 62 | 1012.8 |
| 20260510171529 | 60 | 219 | 13.0 | 18.0 | 0.00 | 0.00 | 0.00 | 63 | 1012.8 |
| 20260510170026 | 59 | 240 | 14.0 | 18.0 | 0.00 | 0.00 | 0.00 | 64 | 1012.7 |
| 20260510164538 | 59 | 225 | 12.0 | 20.0 | 0.00 | 0.00 | 0.00 | 65 | 1012.8 |
| 20260510163024 | 58 | 234 | 14.0 | 18.0 | 0.00 | 0.00 | 0.00 | 64 | 1012.9 |
| 20260510161523 | 58 | 242 | 13.0 | 17.0 | 0.00 | 0.00 | 0.00 | 63 | 1012.7 |
| 20260510160023 | 58 | 239 | 12.0 | 17.0 | 0.00 | 0.00 | 0.00 | 62 | 1012.6 |
| 20260510154540 | 58 | 231 | 13.0 | 18.0 | 0.00 | 0.00 | 0.00 | 61 | 1012.6 |
| 20260510153023 | 58 | 235 | 12.0 | 16.0 | 0.00 | 0.00 | 0.00 | 62 | 1012.8 |
| 20260510151518 | 57 | 234 | 11.0 | 16.0 | 0.00 | 0.00 | 0.00 | 62 | 1012.6 |
| 20260510150018 | 57 | 231 | 11.0 | 17.0 | 0.00 | 0.00 | 0.00 | 61 | 1012.7 |
| 20260510144523 | 57 | 238 | 10.0 | 17.0 | 0.00 | 0.00 | 0.00 | 59 | 1012.6 |
| 20260510143014 | 57 | 234 | 9.0 | 16.0 | 0.00 | 0.00 | 0.00 | 57 | 1012.6 |
| 20260510141514 | 57 | 234 | 10.0 | 16.0 | 0.00 | 0.00 | 0.00 | 58 | 1012.7 |
| 20260510140012 | 55 | 234 | 7.0 | 11.0 | 0.00 | 0.00 | 0.00 | 57 | 1012.5 |
| 20260510134508 | 54 | 228 | 9.0 | 13.0 | 0.00 | 0.00 | 0.00 | 57 | 1012.7 |
| 20260510133007 | 53 | 226 | 10.0 | 13.0 | 0.00 | 0.00 | 0.00 | 58 | 1012.8 |
| 20260510131510 | 52 | 223 | 9.0 | 12.0 | 0.00 | 0.00 | 0.00 | 60 | 1012.8 |
| 20260510130006 | 53 | 238 | 10.0 | 15.0 | 0.00 | 0.00 | 0.00 | 60 | 1012.9 |
| 20260510124505 | 53 | 223 | 11.0 | 16.0 | 0.00 | 0.00 | 0.00 | 58 | 1012.4 |
| 20260510123006 | 52 | 224 | 9.0 | 12.0 | 0.00 | 0.00 | 0.00 | 59 | 1012.3 |
| 20260510121503 | 52 | 213 | 8.0 | 12.0 | 0.00 | 0.00 | 0.00 | 58 | 1012.1 |
| 20260510120004 | 52 | 213 | 8.0 | 12.0 | 0.00 | 0.00 | 0.00 | 60 | 1012.2 |
| 20260510114504 | 52 | 213 | 8.0 | 10.0 | 0.00 | 0.00 | 0.00 | 60 | 1012.2 |
| 20260510113001 | 52 | 229 | 8.0 | 11.0 | 0.00 | 0.00 | 0.00 | 57 | 1012.4 |
| 20260510111601 | 53 | 218 | 8.0 | 11.0 | 0.00 | 0.00 | 0.00 | 56 | 1012.4 |
| 20260510110059 | 53 | 214 | 6.0 | 9.0 | 0.00 | 0.00 | 0.00 | 56 | 1012.3 |
| 20260510104559 | 52 | 219 | 5.0 | 7.0 | 0.00 | 0.00 | 0.00 | 57 | 1012.3 |
| 20260510103059 | 51 | 207 | 5.0 | 7.0 | 0.00 | 0.00 | 0.00 | 59 | 1012.2 |
| 20260510101559 | 51 | 207 | 5.0 | 7.0 | 0.00 | 0.00 | 0.00 | 59 | 1012.3 |
| 20260510100104 | 51 | 204 | 4.0 | 6.0 | 0.00 | 0.00 | 0.00 | 57 | 1012.3 |
| 20260510094555 | 51 | 200 | 5.0 | 6.0 | 0.00 | 0.00 | 0.00 | 58 | 1012.4 |
| 20260510093052 | 50 | 202 | 3.0 | 5.0 | 0.00 | 0.00 | 0.00 | 60 | 1012.5 |
| 20260510091551 | 50 | 205 | 3.0 | 6.0 | 0.00 | 0.00 | 0.00 | 59 | 1012.7 |
| 20260510090050 | 54 | 195 | 3.0 | 6.0 | 0.00 | 0.00 | 0.00 | 53 | 1012.9 |
| 20260510084549 | 51 | 197 | 2.0 | 4.0 | 0.00 | 0.00 | 0.00 | 59 | 1012.8 |
| 20260510083048 | 52 | 212 | 4.0 | 6.0 | 0.00 | 0.00 | 0.00 | 56 | 1012.9 |
| 20260510081546 | 47 | 178 | 0.0 | 2.0 | 0.00 | 0.00 | 0.00 | 66 | 1012.9 |
| 20260510080058 | 48 | 178 | 1.0 | 3.0 | 0.00 | 0.00 | 0.00 | 63 | 1013.0 |
| 20260510074548 | 49 | 188 | 1.0 | 2.0 | 0.00 | 0.00 | 0.00 | 60 | 1013.0 |
| 20260510073044 | 51 | 188 | 1.0 | 2.0 | 0.00 | 0.00 | 0.00 | 57 | 1013.0 |
| 20260510071537 | 52 | 188 | 1.0 | 2.0 | 0.00 | 0.00 | 0.00 | 51 | 1013.1 |
| 20260510070032 | 52 | 188 | 1.0 | 2.0 | 0.00 | 0.00 | 0.00 | 54 | 1013.1 |
| 20260510064545 | 53 | 184 | 2.0 | 3.0 | 0.00 | 0.00 | 0.00 | 51 | 1013.3 |
| 20260510063031 | 53 | 193 | 2.0 | 3.0 | 0.00 | 0.00 | 0.00 | 50 | 1013.1 |
| 20260510061532 | 51 | 117 | 0.0 | 1.0 | 0.00 | 0.00 | 0.00 | 55 | 1013.0 |
| 20260510060030 | 52 | 117 | 0.0 | 2.0 | 0.00 | 0.00 | 0.00 | 54 | 1013.1 |
| 20260510054530 | 58 | 112 | 3.0 | 4.0 | 0.00 | 0.00 | 0.00 | 38 | 1013.1 |
| 20260510053040 | 56 | 103 | 2.0 | 5.0 | 0.00 | 0.00 | 0.00 | 43 | 1013.0 |
| 20260510051543 | 59 | 105 | 3.0 | 7.0 | 0.00 | 0.00 | 0.00 | 40 | 1013.0 |
| 20260510050028 | 61 | 97 | 6.0 | 8.0 | 0.00 | 0.00 | 0.00 | 33 | 1013.2 |
| 20260510044528 | 60 | 123 | 3.0 | 7.0 | 0.00 | 0.00 | 0.00 | 43 | 1013.3 |
| 20260510043029 | 59 | 123 | 3.0 | 7.0 | 0.00 | 0.00 | 0.00 | 42 | 1013.5 |
| 20260510041528 | 63 | 109 | 4.0 | 7.0 | 0.00 | 0.00 | 0.00 | 36 | 1013.3 |
| 20260510040028 | 67 | 79 | 7.0 | 9.0 | 0.00 | 0.00 | 0.00 | 32 | 1013.2 |
| 20260510034526 | 65 | 74 | 6.0 | 7.0 | 0.00 | 0.00 | 0.00 | 34 | 1013.2 |
| 20260510033024 | 64 | 87 | 6.0 | 8.0 | 0.00 | 0.00 | 0.00 | 37 | 1013.2 |
| 20260510031529 | 66 | 65 | 7.0 | 8.0 | 0.00 | 0.00 | 0.00 | 33 | 1013.2 |
| 20260510030024 | 66 | 65 | 6.0 | 8.0 | 0.00 | 0.00 | 0.00 | 35 | 1013.2 |
| 20260510024524 | 66 | 67 | 4.0 | 7.0 | 0.00 | 0.00 | 0.00 | 39 | 1013.1 |
| 20260510023024 | 67 | 79 | 3.0 | 6.0 | 0.00 | 0.00 | 0.00 | 39 | 1013.1 |
| 20260510021529 | 69 | 77 | 6.0 | 9.0 | 0.00 | 0.00 | 0.00 | 36 | 1013.1 |
| 20260510020028 | 70 | 66 | 6.0 | 9.0 | 0.00 | 0.00 | 0.00 | 33 | 1013.2 |
| 20260510014519 | 72 | 57 | 8.0 | 11.0 | 0.00 | 0.00 | 0.00 | 29 | 1013.4 |
| 20260510013018 | 73 | 65 | 7.0 | 10.0 | 0.00 | 0.00 | 0.00 | 30 | 1013.7 |
| 20260510011517 | 74 | 71 | 6.0 | 9.0 | 0.00 | 0.00 | 0.00 | 29 | 1013.7 |
| 20260510010016 | 75 | 50 | 5.0 | 7.0 | 0.00 | 0.00 | 0.00 | 25 | 1013.6 |
| 20260510004514 | 75 | 54 | 2.0 | 4.0 | 0.00 | 0.00 | 0.00 | 29 | 1013.8 |
| 20260510003014 | 76 | 46 | 2.0 | 5.0 | 0.00 | 0.00 | 0.00 | 20 | 1013.8 |
| 20260510001512 | 76 | 38 | 3.0 | 6.0 | 0.00 | 0.00 | 0.00 | 17 | 1014.0 |
| 20260510000010 | 76 | 344 | 3.0 | 7.0 | 0.00 | 0.00 | 0.00 | 18 | 1014.1 |
| 20260509234508 | 75 | 355 | 3.0 | 7.0 | 0.00 | 0.00 | 0.00 | 21 | 1014.2 |
| 20260509233006 | 75 | 65 | 2.0 | 8.0 | 0.00 | 0.00 | 0.00 | 20 | 1014.5 |
| 20260509231504 | 75 | 360 | 3.0 | 7.0 | 0.00 | 0.00 | 0.00 | 21 | 1014.7 |
| 20260509230003 | 75 | 5 | 2.0 | 7.0 | 0.00 | 0.00 | 0.00 | 22 | 1014.8 |
| 20260509224501 | 74 | 14 | 4.0 | 7.0 | 0.00 | 0.00 | 0.00 | 22 | 1014.9 |
| 20260509223111 | 74 | 24 | 4.0 | 9.0 | 0.00 | 0.00 | 0.00 | 23 | 1015.0 |
| 20260509221619 | 73 | 84 | 5.0 | 10.0 | 0.00 | 0.00 | 0.00 | 23 | 1015.3 |